User: anonymous   Login
Location: Gollag?dem
(16.8053°N, 80.8024°E)
Time: 18:35:53
(UTC+00:00)
Language:

GPS 2-17 Rocket1 - Orbit

View from above orbital plane
View from above orbital plane
View from above satellite
View from above satellite

Ground track
Ground track

The orbit data is extracted from the following two-line orbital elements,

1 22276U 92089B   20303.77813394  .00000658  00000-0  27758-4 0  9999
2 22276  20.2870 329.8265 0063061  61.5480  93.5993 14.84564437505908
Epoch (UTC): 29 October 2020 18:40:30
Eccentricity: 0.0063061
inclination: 20.2870°
perigee height: 571 km
apogee height: 659 km
right ascension of ascending node: 329.8265°
argument of perigee: 61.5480°
revolutions per day: 14.84564437
mean anomaly at epoch: 93.5993°
orbit number at epoch: 50590

The dashed part of the orbit path shows where the satellite is in the earth's shadow,  

DLR